Flag for U.S.A. Weather past 2 weeks in Monticello, Kentucky, U.S.A.

Now
51 °F

Mostly cloudy.


Feels Like: 49 °F
Forecast: 45 / 65 °F
Wind: 6 mph from West

Location: London-Corbin Airport-Magee Field

Current Time: Apr 21, 2015 at 3:33:26 AM

Latest Report: Apr 21, 2015 at 2:53 AM


Visibility: 10 mi

Pressure: 29.87 "Hg

Humidity: 61%

Dew point: 38 °F

Location of MonticelloLocation

Historic Weather in Monticello — Graph

°F

Monticello temperature yesterday

Maximum temperature yesterday: 68 °F (at 1:53 PM)
Minimum temperature yesterday: 51 °F (at 11:53 PM)
Average temperature yesterday: 60 °F

Past Weeks' High & Low Weather Summary

 TemperatureHumidityPressure
High85 °F (Apr 9, 4:53 PM)90% (Apr 8, 3:53 AM)30.25 "Hg (Apr 8, 3:53 AM)
Low42 °F (Apr 11, 6:53 AM)18% (Apr 11, 5:53 PM)29.53 "Hg (Apr 19, 7:53 PM)
Average64 °F65%30.02 "Hg
* Reported Apr 6 1:53 AM — Apr 21 1:53 AM, Monticello, Weather by CustomWeather, © 2015

Note: Actual official high and low records may vary slightly from our data, if they occured in-between our weather recording intervals... More about our weather records

Advertising

Monticello weather history for previous 24 hours

 ConditionsComfort  
Time TempWeatherWind HumidityBarometerVisibility
1:53 AM
Tue, Apr 21
51 °FMostly cloudy.6 mph83%29.86 "Hg10 mi
12:53 AM51 °FPartly cloudy.3 mph83%29.85 "Hg10 mi
11:53 PM
Mon, Apr 20
51 °FClear.3 mph83%29.83 "Hg10 mi
10:53 PM52 °FOvercast.6 mph80%29.82 "Hg10 mi
9:53 PM53 °FOvercast.6 mph77%29.80 "Hg10 mi
8:53 PM53 °FMostly cloudy.7 mph77%29.76 "Hg10 mi
7:53 PM53 °FLight rain. Mostly cloudy.9 mph72%29.73 "Hg10 mi
6:53 PM59 °FBroken clouds.22 mph67%29.67 "Hg10 mi
5:53 PM58 °FLight rain. Mostly cloudy.14 mph75%29.67 "Hg10 mi
4:53 PM60 °FLight rain. Mostly cloudy.22 mph62%29.64 "Hg10 mi
3:53 PM67 °FBroken clouds.10 mph49%29.61 "Hg10 mi
2:53 PM68 °FCloudy.14 mph44%29.62 "Hg10 mi
1:53 PM68 °FOvercast.18 mph45%29.64 "Hg10 mi
12:53 PM67 °FMostly cloudy.20 mph47%29.62 "Hg10 mi
11:53 AM65 °FOvercast.14 mph56%29.63 "Hg10 mi
10:53 AM63 °FBroken clouds.15 mph63%29.63 "Hg10 mi
9:53 AM61 °FMostly cloudy.12 mph67%29.60 "Hg10 mi
8:53 AM60 °FOvercast.8 mph69%29.58 "Hg10 mi
7:53 AM58 °FClear.3 mph75%29.57 "Hg10 mi
6:53 AM60 °FLight rain. Partly cloudy.15 mph67%29.56 "Hg10 mi
6:01 AM61 °FThundershowers. Overcast.14 mph72%29.60 "Hg10 mi
4:53 AM63 °FPassing clouds.10 mph75%29.58 "Hg10 mi
3:53 AM63 °FClear.8 mph75%29.59 "Hg10 mi
Weather by CustomWeather, © 2015

See weather overviewHow to use our weather pages